Weather History for Chino, CA

Change the Weather History Date:

Saturday, March 24, 2012

  Actual Average Record
Temperature  
Mean Temperature 58 °F -  
Max Temperature 70 °F 68 °F 86 °F (2008)
Min Temperature 48 °F 43 °F 35 °F (2011)
Degree Days  
Heating Degree Days 6    
Growing Degree Days 8 (Base 50)    
Moisture  
Dew Point 48 °F    
Average Humidity 82    
Maximum Humidity 100    
Minimum Humidity 49    
Precipitation  
Precipitation 0.00 in - - ()
Sea Level Pressure  
Sea Level Pressure 29.97 in    
Wind  
Wind Speed 4 mph (West)    
Max Wind Speed 15 mph    
Max Gust Speed -    
Visibility 6 miles    
Events      
Averages and records for this station are not official NWS values.
T = Trace of Precipitation, MM = Missing Value Source: NWS Daily Summary

Daily Weather History Graph

Daily Weather History Graph

Search for Another Location

Airport:

Trip Planner

Search our weather history database for the weather conditions in past years. The results will help you decide how hot, cold, wet, or windy it might be!

Date:

Astronomy

Mar. 24, 2012 Rise Set
Actual Time 6:47 AM PDT 7:05 PM PDT
Civil Twilight 6:23 AM PDT 7:30 PM PDT
Nautical Twilight 5:53 AM PDT 8:00 PM PDT
Astronomical Twilight 5:24 AM PDT 8:29 PM PDT
Moon 7:37 AM PDT (3/24) 9:20 PM PDT (3/24)
Length of Visible Light 13h 07m
Length of Day
12h 17m
Waxing Crescent, 4% of the Moon is Illuminated
Mar 24
Waxing Crescent
Mar 30
First Quarter
Apr 6
Full
Apr 13
Last Quarter
Apr 21
New

Hourly Weather History & Observations

Time (PDT) Temp. Dew Point Humidity Pressure Visibility Wind Dir Wind Speed Gust Speed Precip Events Conditions
12:53 AM 51.1 °F 48.0 °F 89% 29.99 in 8.0 mi Calm Calm - N/A   Clear
2:53 AM 48.9 °F 46.9 °F 93% 29.98 in 5.0 mi West 6.9 mph - N/A   Clear
3:51 AM 48.2 °F 46.4 °F 93% 29.98 in 4.0 mi West 4.6 mph - N/A   Scattered Clouds
3:53 AM 48.9 °F 46.9 °F 93% 29.97 in 4.0 mi West 4.6 mph - N/A   Scattered Clouds
4:00 AM 48.2 °F 46.4 °F 93% 29.98 in 4.0 mi West 4.6 mph - N/A   Mostly Cloudy
5:53 AM 48.9 °F 48.0 °F 97% 29.98 in 3.0 mi WNW 5.8 mph - N/A   Overcast
6:08 AM 48.2 °F 48.2 °F 100% 29.98 in 2.5 mi WNW 4.6 mph - N/A   Overcast
6:21 AM 50.0 °F 48.2 °F 94% 29.98 in 3.0 mi WSW 4.6 mph - N/A   Overcast
6:53 AM 50.0 °F 48.0 °F 93% 29.99 in 4.0 mi West 5.8 mph - N/A   Overcast
7:53 AM 51.1 °F 48.9 °F 92% 30.00 in 3.0 mi WSW 5.8 mph - N/A   Overcast
8:53 AM 51.1 °F 48.0 °F 89% 30.01 in 4.0 mi Calm Calm - N/A   Overcast
9:53 AM 53.1 °F 48.0 °F 83% 30.02 in 3.0 mi Calm Calm - N/A   Haze
10:53 AM 53.1 °F 48.9 °F 86% 30.02 in 4.0 mi Calm Calm - N/A   Haze
11:07 AM 53.6 °F 48.2 °F 82% 30.02 in 4.0 mi Calm Calm - N/A   Haze
11:53 AM 55.0 °F 48.9 °F 80% 30.01 in 4.0 mi Calm Calm - N/A   Haze
12:53 PM 57.9 °F 50.0 °F 75% 29.99 in 3.0 mi SW 5.8 mph - N/A   Haze
1:53 PM 61.0 °F 50.0 °F 67% 29.96 in 4.0 mi NW 3.5 mph - N/A   Haze
3:53 PM 69.1 °F 48.9 °F 49% 29.91 in 10.0 mi WSW 6.9 mph - N/A   Mostly Cloudy
4:53 PM 66.9 °F 46.9 °F 49% 29.90 in 10.0 mi SW 11.5 mph - N/A   Mostly Cloudy
5:53 PM 64.9 °F 48.0 °F 54% 29.90 in 10.0 mi WSW 12.7 mph - N/A   Mostly Cloudy
7:53 PM 57.0 °F 46.0 °F 67% 29.92 in 10.0 mi WNW 10.4 mph - N/A   Scattered Clouds
8:53 PM 54.0 °F 46.9 °F 77% 29.94 in 9.0 mi WNW 15.0 mph - N/A   Clear
9:53 PM 52.0 °F 46.0 °F 80% 29.94 in 9.0 mi West 6.9 mph - N/A   Clear
10:53 PM 50.0 °F 46.0 °F 86% 29.96 in 9.0 mi West 8.1 mph - N/A   Partly Cloudy
11:53 PM 50.0 °F 46.0 °F 86% 29.96 in 8.0 mi NW 9.2 mph - N/A   Clear